Location: Battery Park City
(40.7115°N, 74.0163°W)
Time: 13:24:54
(UTC+00:00)

Aureole 1 Rocket - Pass Details

Date: 08 December 2019
Orbit: 378 x 1382 km, 73.9° (Epoch: 28 January)

Event Time Altitude Azimuth Distance (km) Brightness Sun altitude
Rises 22:21:00 0° 170° (S) 2,288 6.1 -9.8°
Reaches altitude 10° 22:23:19 10° 153° (SSE) 1,397 4.8 -10.2°
Maximum altitude 22:25:36 20° 102° (ESE) 936 3.5 -10.6°
Enters shadow 22:26:37 17° 73° (ENE) 1,049 3.6 -10.8°
